Lapeer, MI

2:01 AM EDT on August 21, 2017 (GMT -0400)
Lapeer

Weather History for KD95 - January, 2013

Change the Weather History Date:

Friday, January 25, 2013

  Actual Average (KFNT) Record (KFNT)
Temperature  
Mean Temperature 14 °F -  
Max Temperature 20 °F 31 °F 65 °F (1950)
Min Temperature 8 °F 16 °F -16 °F (2004)
Degree Days  
Heating Degree Days 51    
Moisture  
Dew Point 10 °F    
Average Humidity 80    
Maximum Humidity 91    
Minimum Humidity 72    
Precipitation  
Precipitation 0.01 in - - ()
Sea Level Pressure  
Sea Level Pressure 30.18 in    
Wind  
Wind Speed 3 mph (SSE)    
Max Wind Speed 12 mph    
Max Gust Speed -    
Visibility 6 miles    
Events Snow    
Averages and records for this station are not official NWS values.
T = Trace of Precipitation, MM = Missing Value Source: NWS Daily Summary

Daily Weather History Graph

Daily Weather History Graph

Search for Another Location

Airport or City:

Trip Planner

Search our weather history database for the weather conditions in past years. The results will help you decide how hot, cold, wet, or windy it might be!

Date:

Astronomy

Jan. 25, 2013 Rise Set
Actual Time 7:54 AM EST 5:36 PM EST
Civil Twilight 7:24 AM EST 6:07 PM EST
Nautical Twilight 6:49 AM EST 6:41 PM EST
Astronomical Twilight 6:16 AM EST 7:15 PM EST
Moon 4:32 PM EST (1/25) 6:33 AM EST (1/25)
Length of Visible Light 10h 43m
Length of Day
9h 41m
Waxing Gibbous, 98% of the Moon is Illuminated
Jan 25
Waxing Gibbous
Jan 26
Full
Feb 3
Last Quarter
Feb 10
New
Feb 17
First Quarter

Hourly Weather History & Observations

Time (EST) Temp. Windchill Dew Point Humidity Pressure Visibility Wind Dir Wind Speed Gust Speed Precip Events Conditions
12:13 AM 8.1 °F - 2.1 °F 77% 30.47 in 10.0 mi Calm Calm - N/A   Clear
12:32 AM 8.4 °F - 2.3 °F 76% 30.47 in 10.0 mi Calm Calm - N/A   Clear
12:53 AM 8.6 °F - 2.3 °F 76% 30.46 in 10.0 mi Calm Calm - N/A   Clear
1:12 AM 9.0 °F - 3.4 °F 78% 30.45 in 10.0 mi Calm Calm - N/A   Clear
1:32 AM 9.1 °F - 3.0 °F 76% 30.44 in 10.0 mi Calm Calm - N/A   Mostly Cloudy
1:53 AM 9.3 °F - 3.2 °F 76% 30.43 in 10.0 mi Calm Calm - N/A   Overcast
2:12 AM 9.5 °F - 3.2 °F 76% 30.43 in 10.0 mi Calm Calm - N/A   Overcast
2:32 AM 10.0 °F - 3.2 °F 74% 30.41 in 10.0 mi Calm Calm - N/A   Overcast
2:53 AM 10.0 °F - 3.2 °F 74% 30.40 in 10.0 mi Calm Calm - N/A   Mostly Cloudy
3:12 AM 10.2 °F - 3.4 °F 74% 30.39 in 10.0 mi Calm Calm - N/A   Overcast
3:33 AM 10.4 °F 4.0 °F 3.6 °F 74% 30.37 in 10.0 mi SE 3.5 mph - N/A   Overcast
3:53 AM 10.8 °F 4.5 °F 3.7 °F 73% 30.37 in 10.0 mi SSE 3.5 mph - N/A   Overcast
4:12 AM 11.1 °F 4.9 °F 3.6 °F 72% 30.36 in 10.0 mi SSE 3.5 mph - N/A   Overcast
4:33 AM 11.3 °F 5.1 °F 4.1 °F 73% 30.35 in 10.0 mi SSE 3.5 mph - N/A   Overcast
4:53 AM 11.3 °F 5.1 °F 4.3 °F 73% 30.34 in 10.0 mi SSE 3.5 mph - N/A   Overcast
5:12 AM 11.5 °F 5.3 °F 4.5 °F 73% 30.32 in 10.0 mi SSE 3.5 mph - N/A   Scattered Clouds
5:33 AM 11.8 °F 5.7 °F 5.0 °F 74% 30.31 in 10.0 mi SSE 3.5 mph - N/A   Mostly Cloudy
5:53 AM 12.0 °F 5.9 °F 5.5 °F 75% 30.29 in 10.0 mi SE 3.5 mph - N/A   Overcast
6:12 AM 12.0 °F 5.9 °F 5.7 °F 76% 30.28 in 10.0 mi SE 3.5 mph - N/A   Overcast
6:33 AM 12.2 °F - 6.1 °F 76% 30.27 in 10.0 mi Calm Calm - N/A   Overcast
6:53 AM 12.2 °F - 6.6 °F 78% 30.27 in 4.0 mi Calm Calm - N/A Snow Light Snow
7:12 AM 12.0 °F 4.1 °F 7.7 °F 83% 30.25 in 3.0 mi SE 4.6 mph - N/A Snow Light Snow
7:33 AM 12.0 °F 5.9 °F 8.2 °F 85% 30.23 in 3.0 mi ESE 3.5 mph - N/A Snow Light Snow
7:53 AM 12.0 °F 5.9 °F 8.6 °F 86% 30.22 in 4.0 mi SE 3.5 mph - N/A Snow Light Snow
8:33 AM 12.6 °F - 9.5 °F 88% 30.21 in 1.5 mi Calm Calm - N/A Snow Light Snow
8:53 AM 12.7 °F 6.7 °F 9.5 °F 87% 30.21 in 1.8 mi SE 3.5 mph - N/A Snow Light Snow
9:12 AM 13.1 °F - 10.0 °F 88% 30.20 in 1.8 mi Calm Calm - N/A Snow Light Snow
9:33 AM 13.5 °F 7.5 °F 10.4 °F 88% 30.19 in 1.8 mi ESE 3.5 mph - N/A Snow Light Snow
9:53 AM 13.8 °F - 10.8 °F 88% 30.19 in 1.2 mi Calm Calm - N/A Snow Light Snow
10:12 AM 14.0 °F 6.5 °F 11.1 °F 88% 30.18 in 0.8 mi ESE 4.6 mph - N/A Snow Light Snow
10:33 AM 14.7 °F 5.9 °F 11.5 °F 87% 30.16 in 1.2 mi SE 5.8 mph - 0.01 in Snow Light Snow
10:53 AM 15.3 °F 6.6 °F 11.8 °F 86% 30.15 in 1.5 mi SE 5.8 mph - 0.01 in Snow Light Snow
11:12 AM 15.8 °F 5.1 °F 12.2 °F 86% 30.15 in 1.8 mi SE 8.1 mph - N/A Snow Light Snow
11:33 AM 16.7 °F 7.2 °F 12.2 °F 82% 30.13 in 2.5 mi SSE 6.9 mph - N/A Snow Light Snow
11:53 AM 17.2 °F 10.2 °F 12.4 °F 81% 30.12 in 2.0 mi SSE 4.6 mph - N/A Snow Light Snow
12:12 PM 17.6 °F 7.3 °F 12.0 °F 79% 30.11 in 4.0 mi South 8.1 mph - N/A Snow Light Snow
12:33 PM 18.0 °F 8.7 °F 12.4 °F 79% 30.10 in 4.0 mi SE 6.9 mph - N/A Snow Light Snow
12:52 PM 18.9 °F 8.0 °F 12.2 °F 75% 30.08 in 5.0 mi South 9.2 mph - N/A   Haze
1:13 PM 19.4 °F 9.5 °F 12.0 °F 73% 30.06 in 5.0 mi SSE 8.1 mph - N/A   Haze
1:33 PM 19.2 °F 8.4 °F 11.7 °F 72% 30.06 in 7.0 mi South 9.2 mph - N/A   Overcast
1:52 PM 19.4 °F 8.6 °F 11.8 °F 72% 30.04 in 7.0 mi SSE 9.2 mph - N/A Snow Light Snow
2:13 PM 19.9 °F 7.9 °F 12.4 °F 72% 30.03 in 5.0 mi South 11.5 mph - N/A Snow Light Snow
2:33 PM 19.8 °F 11.9 °F 13.3 °F 76% 30.02 in 7.0 mi SSE 5.8 mph - N/A Snow Light Snow
2:52 PM 19.8 °F 10.8 °F 13.3 °F 76% 30.00 in 5.0 mi SE 6.9 mph - N/A Snow Light Snow
3:13 PM 19.9 °F 13.4 °F 12.6 °F 73% 30.00 in 10.0 mi SSE 4.6 mph - N/A Snow Light Snow
3:33 PM 20.1 °F 12.3 °F 13.3 °F 75% 30.00 in 4.0 mi SSE 5.8 mph - N/A Snow Light Snow
3:52 PM 19.9 °F 11.1 °F 13.8 °F 77% 30.00 in 5.0 mi South 6.9 mph - N/A Snow Light Snow
4:13 PM 19.4 °F 10.4 °F 15.4 °F 85% 29.99 in 1.2 mi SSE 6.9 mph - N/A Snow Light Snow
4:33 PM 19.4 °F 12.8 °F 14.9 °F 83% 29.99 in 7.0 mi SE 4.6 mph - N/A Snow Light Snow
4:52 PM 19.4 °F 9.5 °F 14.0 °F 80% 29.99 in 5.0 mi South 8.1 mph - N/A Snow Light Snow
5:13 PM 19.4 °F 11.5 °F 13.5 °F 78% 29.99 in 10.0 mi SSE 5.8 mph - N/A Snow Light Snow
5:33 PM 19.2 °F 11.3 °F 13.5 °F 78% 29.98 in 7.0 mi SSE 5.8 mph - N/A Snow Light Snow
5:52 PM 19.0 °F 11.1 °F 14.0 °F 81% 29.99 in 7.0 mi South 5.8 mph - N/A Snow Light Snow
6:13 PM 18.9 °F 13.7 °F 14.0 °F 81% 30.00 in 10.0 mi South 3.5 mph - N/A Snow Light Snow
6:33 PM 18.5 °F 13.3 °F 14.4 °F 84% 30.00 in 5.0 mi South 3.5 mph - N/A Snow Light Snow
6:52 PM 18.5 °F 13.3 °F 14.9 °F 86% 30.00 in 3.0 mi SSE 3.5 mph - N/A Snow Light Snow
7:13 PM 18.3 °F 13.1 °F 15.4 °F 89% 30.00 in 2.0 mi South 3.5 mph - N/A Snow Light Snow
7:33 PM 18.0 °F - 15.3 °F 89% 30.01 in 5.0 mi Calm Calm - N/A Snow Light Snow
7:52 PM 18.1 °F - 15.6 °F 90% 30.01 in 3.0 mi Calm Calm - N/A Snow Light Snow
8:13 PM 17.8 °F - 15.6 °F 91% 30.00 in 3.0 mi Calm Calm - N/A Snow Light Snow
8:33 PM 17.6 °F - 15.4 °F 91% 30.00 in 4.0 mi Calm Calm - N/A Snow Light Snow